Meteo Giornale » Osservazioni meteo Canada » Oshawa
ore: 23:00 - Osservazioni Meteo Oshawa
Lat. 43° 55' N Lon. 78° 54' W Alt. 139 metri s.l.m.
19 °C
Pioggia Foschia
Temp. 24 Ore
19 °C
20 °C
Est
11.1 Km/h
Dew point 19 °C
Umidità 100 %
Visibilità 6 Km
Il sole sorge alle ore 06:38
Il sole tramonta alle ore 19:53
| Data e Ora | Cielo e Fenomeni | T °C | DP °C | Um. % | Pres. hPa | Vis. km | Vento km/h | |
|---|---|---|---|---|---|---|---|---|
| Oggi h: 23:00 | Pioggia Foschia | 19 | 19 | 100 | 1015 | 6 | E 11.1 | |
| Oggi h: 22:37 | Pioggia Foschia | 19 | 19 | 100 | 1016 | 8 | N 5.5 | |
| Oggi h: 22:25 | Foschia | 19 | 19 | 100 | 1016 | 10 | E/SE 7.4 | |
| Oggi h: 22:00 | Foschia | 19 | 19 | 100 | 1016 | 8 | E 7.4 | |
| Oggi h: 21:46 | Foschia | 19 | 19 | 100 | 1016 | 6 | N 5.5 | |
| Oggi h: 21:35 | Pioggia Foschia | 19 | 19 | 100 | 1016 | 5 | E/SE 7.4 | |
| Oggi h: 21:34 | Pioggia Temporale nelle vicinanze | 19 | 19 | 100 | 1016 | 5 | E/SE 7.4 | |
| Oggi h: 21:27 | Pioggia Temporale nelle vicinanze | 19 | 19 | 100 | 1016 | 3 | E 9.3 | |
| Oggi h: 21:22 | Pioggia Temporale nelle vicinanze | 19 | 19 | 100 | 1016 | 2 | E/SE 11.1 | |
| Oggi h: 21:19 | Pioggia Temporale nelle vicinanze | 19 | 19 | 100 | 1016 | 2 | E/SE 7.4 | |
| Oggi h: 21:15 | Pioggia Foschia | 19 | 19 | 100 | 1016 | 5 | N 9.3 | |
| Oggi h: 21:14 | Pioggia Foschia | 19 | 19 | 100 | 1016 | 3 | E/SE 7.4 | |
| Oggi h: 21:13 | Pioggia Foschia | 19 | 19 | 100 | 1016 | 5 | N 5.5 | |
| Oggi h: 21:12 | Pioggia Foschia | 20 | 20 | 100 | 1016 | 5 | N 3.7 | |
| Oggi h: 21:00 | Foschia | 19 | 19 | 100 | 1016 | 6 | N 3.7 | |
| Oggi h: 20:57 | Foschia | 19 | 19 | 100 | 1016 | 8 | N 3.7 | |
| Oggi h: 20:00 | Coperto | 19 | 19 | 100 | 1015 | 14 | E/SE 9.3 | |
| Oggi h: 19:23 | Foschia | 19 | 19 | 100 | 1015 | 10 | E 11.1 | |
| Oggi h: 19:00 | Foschia | 20 | 20 | 100 | 1016 | 6 | E 9.3 | |
| Oggi h: 18:44 | Foschia | 19 | 19 | 100 | 1016 | 5 | E 9.3 | |
| Oggi h: 18:26 | Foschia | 20 | 20 | 100 | 1016 | 3 | E/SE 7.4 | |
| Oggi h: 18:10 | Foschia | 20 | 20 | 100 | 1016 | 5 | E 9.3 | |
| Oggi h: 18:00 | Foschia | 20 | 20 | 100 | 1016 | 3 | E/SE 9.3 | |
| Oggi h: 17:35 | Foschia | 20 | 20 | 100 | 1016 | 2 | E/SE 9.3 | |
| Oggi h: 17:26 | Foschia | 20 | 20 | 100 | 1016 | 8 | E/SE 9.3 | |
| Oggi h: 17:17 | Coperto | 20 | 20 | 100 | 1016 | 14 | E/SE 7.4 | |
| Oggi h: 17:00 | Pioggia | 20 | 20 | 100 | 1016 | 14 | E 9.3 | |
| Oggi h: 16:44 | Pioggia | 20 | 20 | 100 | 1016 | 14 | E/SE 7.4 | |
| Oggi h: 16:18 | Coperto | 20 | 20 | 100 | 1016 | 11 | E/SE 7.4 | |
| Oggi h: 16:13 | Pioggia Foschia | 20 | 20 | 100 | 1016 | 10 | E 9.3 | |
| Oggi h: 16:00 | Pioggia Foschia | 20 | 20 | 100 | 1016 | 5 | E 7.4 | |
| Oggi h: 15:50 | Pioggia Foschia | 20 | 20 | 100 | 1016 | 5 | E 7.4 | |
| Oggi h: 15:07 | Pioggia Foschia | 19 | 19 | 100 | 1017 | 2 | S/SE 7.4 | |
| Oggi h: 15:00 | Pioggia Foschia | 19 | 19 | 100 | 1017 | 5 | SE 7.4 | |
| Oggi h: 14:34 | Pioggia Foschia | 20 | 20 | 100 | 1017 | 5 | N 5.5 | |
| Oggi h: 14:21 | Pioggia Foschia | 19 | 19 | 100 | 1017 | 2 | N 5.5 | |
| Oggi h: 14:02 | Pioggia Foschia | 19 | 19 | 100 | 1017 | 5 | SE 7.4 | |
| Oggi h: 14:00 | Pioggia Foschia | 19 | 19 | 100 | 1017 | 2 | N 5.5 | |
| Oggi h: 13:53 | Pioggia Foschia | 19 | 19 | 100 | 1017 | 2 | SE 7.4 | |
| Oggi h: 13:38 | Pioggia Foschia | 19 | 19 | 100 | 1017 | 5 | SE 9.3 | |
| Oggi h: 13:33 | Pioggia Foschia | 19 | 19 | 100 | 1017 | 3 | N 5.5 | |
| Oggi h: 13:17 | Pioggia Foschia | 19 | 19 | 100 | 1017 | 5 | SE 7.4 | |
| Oggi h: 13:13 | Pioggia Foschia | 19 | 19 | 100 | 1017 | 2 | S/SE 9.3 | |
| Oggi h: 13:00 | Pioggia Foschia | 20 | 20 | 100 | 1017 | 8 | N 5.5 | |
| Oggi h: 12:57 | Pioggia Foschia | 19 | 19 | 100 | 1017 | 8 | SE 7.4 | |
| Oggi h: 12:00 | Pioggia Foschia | 19 | 19 | 100 | 1018 | 10 | E/SE 7.4 | |
| Oggi h: 11:59 | Pioggia Foschia | 19 | 19 | 100 | 1018 | 10 | E/SE 9.3 | |
| Oggi h: 11:40 | Pioggia Foschia | 19 | 19 | 100 | 1018 | 5 | E/SE 7.4 | |
| Oggi h: 11:24 | Pioggia Foschia | 19 | 19 | 100 | 1018 | 2 | SE 7.4 | |
| Oggi h: 11:01 | Pioggia Foschia | 19 | 19 | 100 | 1017 | 6 | S/SE 13 | |
| Oggi h: 11:00 | Foschia | 19 | 19 | 100 | 1018 | 6 | SE 13 | |
| Oggi h: 10:56 | Foschia | 19 | 19 | 100 | 1018 | 8 | SE 9.3 | |
| Oggi h: 10:33 | Coperto | 19 | 19 | 100 | 1018 | 14 | SE 11.1 | |
| Oggi h: 10:14 | Pioggia Foschia | 19 | 19 | 100 | 1018 | 10 | SE 9.3 | |
| Oggi h: 10:07 | Pioggia Foschia | 19 | 19 | 100 | 1018 | 5 | E/SE 7.4 | |
| Oggi h: 10:00 | Pioggia Foschia | 19 | 19 | 100 | 1018 | 2 | SE 9.3 | |
| Oggi h: 09:56 | Pioggia Foschia | 19 | 19 | 100 | 1018 | 2 | SE 9.3 | |
| Oggi h: 09:53 | Pioggia Foschia | 19 | 19 | 100 | 1018 | 2 | SE 7.4 | |
| Oggi h: 09:51 | Pioggia Foschia | 19 | 19 | 100 | 1018 | 5 | E/SE 11.1 | |
| Oggi h: 09:36 | Pioggia Foschia | 19 | 19 | 100 | 1018 | 2 | E/SE 7.4 | |
| Oggi h: 09:34 | Pioggia Foschia | 19 | 19 | 100 | 1018 | 2 | E/SE 7.4 | |
| Oggi h: 09:29 | Pioggia Foschia | 19 | 19 | 100 | 1018 | 5 | SE 9.3 | |
| Oggi h: 09:25 | Pioggia Foschia | 19 | 19 | 100 | 1018 | 2 | SE 7.4 | |
| Oggi h: 09:00 | Pioggia Foschia | 19 | 19 | 100 | 1018 | 8 | SE 9.3 | |
| Oggi h: 08:21 | Pioggia Foschia | 19 | 19 | 100 | 1018 | 8 | N 5.5 | |
| Oggi h: 08:10 | Pioggia Foschia | 19 | 19 | 100 | 1018 | 10 | SE 7.4 | |
| Oggi h: 08:06 | Pioggia Foschia | 19 | 19 | 100 | 1018 | 6 | S/SE 7.4 | |
| Oggi h: 08:02 | Pioggia Foschia | 19 | 19 | 100 | 1018 | 5 | S/SE 7.4 | |
| Oggi h: 08:00 | Pioggia Foschia | 19 | 19 | 100 | 1018 | 2 | N 5.5 | |
| Oggi h: 07:57 | Pioggia Foschia | 19 | 19 | 100 | 1018 | 2 | N 5.5 | |
| Oggi h: 07:50 | Pioggia Foschia | 19 | 19 | 100 | 1018 | 2 | N 5.5 | |
| Oggi h: 07:00 | Pioggia Foschia | 19 | 19 | 100 | 1018 | 5 | E/SE 7.4 | |
| Oggi h: 06:50 | Pioggia Foschia | 19 | 19 | 100 | 1018 | 3 | N 5.5 | |
| Oggi h: 06:32 | Pioggia Foschia | 19 | 19 | 100 | 1018 | 5 | N 3.7 | |
| Oggi h: 06:24 | Pioggia Foschia | 19 | 19 | 100 | 1018 | 2 | N 3.7 | |
| Oggi h: 06:14 | Pioggia Foschia | 19 | 19 | 100 | 1018 | 6 | N 5.5 | |
| Oggi h: 06:09 | Foschia | 19 | 19 | 100 | 1018 | 6 | N 5.5 | |
| Oggi h: 06:00 | Pioggia Foschia | 19 | 19 | 100 | 1018 | 6 | N 5.5 | |
| Oggi h: 05:05 | Pioggia Foschia | 19 | 19 | 100 | 1018 | 5 | S 7.4 | |
| Oggi h: 05:00 | Pioggia Foschia | 19 | 19 | 100 | 1018 | 3 | S 7.4 | |
| Oggi h: 04:06 | Pioggia Foschia | 19 | 19 | 100 | 1018 | 5 | N 0 | |
| Oggi h: 04:05 | Foschia | 19 | 19 | 100 | 1018 | 5 | N 0 | |
| Oggi h: 04:00 | Foschia | 19 | 19 | 100 | 1018 | 2 | N 3.7 | |
| Oggi h: 03:56 | Foschia | 19 | 19 | 100 | 1018 | 2 | N 0 | |
| Oggi h: 03:00 | Foschia | 19 | 19 | 100 | 1018 | 5 | N 3.7 | |
| Oggi h: 02:51 | Foschia | 19 | 19 | 100 | 1018 | 6 | N 3.7 | |
| Oggi h: 02:15 | Foschia | 19 | 18 | 93 | 1018 | 8 | N 3.7 | |
| Oggi h: 02:04 | Pioggia Foschia | 19 | 19 | 100 | 1019 | 8 | N 3.7 | |
| Oggi h: 02:03 | Pioggia Foschia | 19 | 19 | 100 | 1019 | 10 | N 3.7 | |
| Oggi h: 02:00 | Foschia | 19 | 19 | 100 | 1019 | 10 | N 3.7 | |
| Oggi h: 01:00 | Coperto | 19 | 18 | 93 | 1019 | 13 | N 3.7 | |
| Oggi h: 00:00 | Coperto | 19 | 18 | 93 | 1019 | 14 | N 5.5 | |



